Regional Weather Roundup
Issued by NWS Sterling, VA

Home | Current Version | Previous Version | Text Only | Print | Product List | Glossary Off
Versions: 1 2 3 4 5 6 7 8 9 10 11 12 13 14 15 16 17 18 19 20 21 22 23 24 25 26 27 28 29 30 31 32 33 34 35 36 37 38 39 40 41 42 43 44 45 46 47 48 49 50

000
ASUS41 KLWX 232310
RWRLWX

REGIONAL WEATHER ROUNDUP
NATIONAL WEATHER SERVICE BALTIMORE MD/WASHINGTON DC
700 PM EDT MON MAY 23 2016

Note: "FAIR" indicates few or no clouds below 12,000 feet
with no significant weather and/or obstructions to visibility.
 TC=TEMPERATURE CELSIUS

 * =Non NWS site. Station does not report precipitation (e.g. rain,
    snow, etc.), thunder, or fog.

DCZ001-MDZ009-015-VAZ040>042-051-053>054-240000-
WASHINGTON METRO

CITY           SKY/WX    TMP DP  RH WIND       PRES   REMARKS
WASHINGTON NAT LGT RAIN  61  57  87 NE8       29.97R
DULLES         PTSUNNY   61  58  90 CALM      29.95S
ANDREWS AFB    LGT RAIN  59  56  89 NE6       29.95R
FT BELVOIR     LGT RAIN  60  57  91 VRB2      29.97R
QUANTICO       RAIN      62  57  83 NE13      29.98R
COLLEGE PARK*  CLOUDY    59  54  82 CALM      29.95F
LEESBURG*      FAIR      63  61  94 SE6       29.95S
MANASSAS*      PTSUNNY   61  59  94 E3        29.95R

$$

MDZ006>007-011-014-240000-
BALTIMORE METRO

CITY           SKY/WX    TMP DP  RH WIND       PRES   REMARKS
BWI AIRPORT    LGT RAIN  57  56  96 W6        29.92F FOG
MD SCIENCE CTR   N/A     59  55  87 MISG      29.92F
MARTIN STATE   PTSUNNY   61  59  94 SW5       29.92S
ANNAPOLIS      PTSUNNY   60  55  83 CALM      29.93R
FORT MEADE*    CLOUDY    55  54  94 W6        29.94F

$$

MDZ012-015-019>023-240000-
MARYLAND EASTERN SHORE

CITY           SKY/WX    TMP DP  RH WIND       PRES   REMARKS
OCEAN CITY     CLOUDY    59  50  72 N5        29.91R
SALISBURY      CLOUDY    63  49  60 CALM      29.91R
BAY BRIDGE AP* PTSUNNY   63  54  72 NW6       29.92F
CAMBRIDGE*     CLOUDY    63  57  82 CALM      29.91R
EASTON*        PTSUNNY   61  59  94 N6        29.95R

$$

MDZ017>025-240000-
SOUTHERN MARYLAND

CITY           SKY/WX    TMP DP  RH WIND       PRES   REMARKS
PATUXENT RIVER PTSUNNY   65  59  81 NW8       29.91R
ST INIGOES     CLOUDY    65  58  78 W3        29.91R
LEONARDTOWN*   CLOUDY    61  55  82 NW3       29.94R

$$

MDZ003>005-240000-
NORTH CENTRAL MARYLAND

CITY           SKY/WX    TMP DP  RH WIND       PRES   REMARKS
FREDERICK*     PTSUNNY   64  57  77 E10       29.98R
HAGERSTOWN APT PTSUNNY   64  53  67 NE6       29.94R
WESTMINSTER*   PTSUNNY   64  46  52 S8        29.93F

$$

MDZ501>502-240000-
WESTERN MARYLAND

CITY           SKY/WX    TMP DP  RH WIND       PRES   REMARKS
OAKLAND*       PTSUNNY   54  52  94 N5        30.03R
CUMBERLAND*    MOSUNNY   72  52  49 S5        29.98R

$$

VAZ025>031-240000-
SHENANDOAH VALLEY

CITY           SKY/WX    TMP DP  RH WIND       PRES   REMARKS
WINCHESTER*    PTSUNNY   64  50  59 CALM      29.95R
FRONT ROYAL*   FAIR      68  48  49 N7        29.93R
LURAY*         MOCLDY    70  50  49 CALM      29.94R
NEW MARKET*    FAIR      69  52  54 N3        29.93R
STAUNTON*      FAIR      67  57  72 SW3       29.98S
WAYNESBORO*    FAIR      65  51  60 W3        29.97F

$$

WVZ021-048>050-054>055-240000-
EASTERN WEST VIRGINIA PANHANDLE

CITY           SKY/WX    TMP DP  RH WIND       PRES   REMARKS
MARTINSBURG    PTSUNNY   62  54  74 NW5       29.93F
PETERSBURG*    CLOUDY    67  56  68 SE3       29.99R

$$

VAZ036>039-050-240000-
CENTRAL FOOTHILLS

CITY           SKY/WX    TMP DP  RH WIND       PRES   REMARKS
CHARLOTTESVILL FAIR      69  53  56 SW5       29.94S
CULPEPER*      LGT RAIN  60  57  89 CALM      29.94R
ORANGE*        RAIN      63  55  77 CALM      29.98R
GORDONSVILLE*  MOCLDY    62  58  86 CALM      29.95R
WARRENTON*     RAIN      60  54  79 NE9       29.95R

$$

VAZ055>057-240000-
NORTH AND CENTRAL PIEDMONT

CITY           SKY/WX    TMP DP  RH WIND       PRES   REMARKS
FREDERICKSBRG* FAIR      66  55  68 NW5       29.93R
STAFFORD*      CLOUDY    64  57  80 NE3       29.98R

$$

NCZ024-NYZ072-PAZ021-071-VAZ022-071-240000-
OTHER REGIONAL OBSERVATIONS

CITY           SKY/WX    TMP DP  RH WIND       PRES   REMARKS
NEW YORK CITY  MOSUNNY   62  51  67 W3        29.89S
PHILADELPHIA   CLOUDY    64  57  77 S6        29.87F
PITTSBURGH     MOSUNNY   71  50  47 S9        29.96S
ROANOKE        LGT RAIN  62  52  69 NW10      30.02R
RICHMOND       CLOUDY    66  51  58 W6        29.93R
RALEIGH        PTSUNNY   66  50  56 VRB3      29.99R

$$

ANZ530>537-240000-
MARINE OBSERVATIONS

STATION/POSITION TIME  TEMP    WIND        PRES
                       AIR SEA DIR/SP/G
                 (UTC) (F)     (DEG/KT/KT) (MB)
THOMAS PT LIGHT  2300   60 60  320/ 10/ 11 1014.6R
BALT KEY BRIDGE  2200   59                 1013.5R
COVE POINT       2200   64                 1012.5F
LEWISETTA        2200   66 62              1012.2S
SOLOMONS ISLAND  2200   65 63                N/A
PINEY POINT      2200          300/  6/  8   N/A

$$




USA.gov is the U.S. government's official web portal to all federal, state and local government web resources and services.